"Pseudo-MPEC" for P20JECR

Created 2018 Oct 13 14:18:04 UT using Find_Orb

Click here for an explanation of pseudo-MPECs

 
 Astrometry: 
     P20JECR  C2018 10 10:'Astrometrytn8qn%JgeyX\0BQG\Z[_I$PyD'mKEg@^]kQpB5AwF52
     P20JECR  C2018 10 10L+?#RU^g;alk`6rS;rt50W'(/QJ'Al$mQwJ^SbKHJq90af#8llHJF52
     P20JECR  C2018 10 10MP3%:FsmxJq\WZa%*Ysn@_fwwYDy]q)pP)dP*7w\bor?OYyYlr'gF52
     P20JECR pC2018 10 10Wnd.Mba0ZjZdsx;W6redacted;89Ra1K6EJI7BQ$SyC;L+6?lJ*@L01
     P20JECR KC2018 10 10yw87kDSVpi!@mm=xqpw:fIh9?[cIU?RXnwVGTLj/G]d[N4XB[BCtL01
     P20JECR KC2018 10 10bX7e3Wh?i\=y]KLMZM177Fe%%-Z:*#il5Z1HkSg4i*4L/`Tj3e[$L01
     P20JECR |C2018 10 13eF]D-=_7tN]/bI1TyhF]Lm7OEr-1rkUYbnq7v._W294e[ZH^`og,807
     P20JECR |C2018 10 13*fX7Q*(-dEU5\RC\7!n*5YeI\#/Q$P8bsee=JyHU\Us'e.==+y.,807
     P20JECR KC2018 10 13Hlu[WDq5.#m^;UUeT$tj3GKxUhoaB#GjoC%'AQpOTchoC4L!c=i0X31
     P20JECR KC2018 10 13hg@W7[Sn(w%EGSov-XdVvbEc.?Rbt8s1sLYIw[%v(3k%@ICQy+vIX31
     P20JECR KC2018 10 13*uU]);0nh\Nj_KeH.x9gr=1#pyrs]nO`+XUMCR!hlLnWN/hNEOCPX31

Station data:
(807) Cerro Tololo Observatory, La Serena  (S30.169136 W70.805900)  Chile.
   1.5-m Ritchey-Chrétien.
(F52) Pan-STARRS 2, Haleakala  (N20.707384 W156.255910)  US/Hawaii.
(L01) Višnjan Observatory, Tičan  (N45.290900 E13.749300)  Croatia.  Observer
   K. Korlević. 1.0-m f/2.9 reflector + CCD.
(X31) Galileo Galilei Observatory, Oro Verde  (S31.823022 W60.520660)
   Argentina.

Orbital elements:  P20JECR
   Perihelion 2017 Oct 23.031969 +/- 633 TT =  0:46:02 (JD 2458049.531969)
Epoch 2018 Oct 13.0 TT = JDT 2458404.5   Earth MOID: 0.8379   AutoNEOCP
M 137.70103 +/- 240                 (J2000 ecliptic)
n   0.38792517 +/- 0.0129           Peri.  201.99623 +/- 130
a   1.86196168 +/- 0.0412           Node    28.11529 +/- 0.8
e   0.0111465 +/- 0.00539           Incl.   23.63811 +/- 1.1
P   2.54/928.00d           H 18.2   G  0.15   U  9.9  
q 1.84120724 +/- 0.0508    Q 1.88271612 +/- 0.034
From 11 observations 2018 Oct. 10-13; mean residual 0".33
Residuals in arcseconds: 
181010 F52  .02+  .12-    181010 L01  .10-  .60+    181013 X31  .30-  .20-    
181010 F52  .02-  .14+    181010 L01  .57-  .10-    181013 X31  .32+  .09+    
181010 F52  .02-  .21-    181013 807  .38+  .07+    181013 X31  .64-  .41-    
181010 L01  .67+  .30-    181013 807  .17+  .36+    

Ephemerides (geocentric):
Date (UTC) HH   RA              Dec         delta   r     elong  mag " sig PA
---- -- -- --  -------------   -----------  ------ ------ -----  --- ---- ---
2018 10 13 14  00 24 12.284   -14 19 34.00  .92633 1.8775 154.7 20.2  .43  75
2018 10 13 15  00 24 08.083   -14 19 02.13  .92647 1.8775 154.7 20.2  .48  74
2018 10 13 16  00 24 03.884   -14 18 30.24  .92661 1.8775 154.7 20.2  .54  73
2018 10 13 17  00 23 59.689   -14 17 58.31  .92675 1.8775 154.6 20.2  .59  72
2018 10 13 18  00 23 55.497   -14 17 26.35  .92689 1.8775 154.6 20.2  .65  71
2018 10 13 19  00 23 51.308   -14 16 54.35  .92703 1.8775 154.6 20.2  .71  70
2018 10 13 20  00 23 47.122   -14 16 22.33  .92717 1.8775 154.5 20.2  .77  70
2018 10 13 21  00 23 42.939   -14 15 50.28  .92732 1.8775 154.5 20.2  .83  69
2018 10 13 22  00 23 38.759   -14 15 18.19  .92746 1.8775 154.5 20.2  .90  69
2018 10 13 23  00 23 34.582   -14 14 46.07  .92760 1.8775 154.4 20.2  .96  68
2018 10 14 00  00 23 30.409   -14 14 13.93  .92775 1.8775 154.4 20.2  1.0  68
2018 10 14 01  00 23 26.238   -14 13 41.75  .92789 1.8775 154.4 20.2  1.1  68
2018 10 14 02  00 23 22.071   -14 13 09.54  .92804 1.8775 154.3 20.2  1.2  67
2018 10 14 03  00 23 17.907   -14 12 37.30  .92818 1.8775 154.3 20.2  1.2  67
2018 10 14 04  00 23 13.746   -14 12 05.02  .92833 1.8775 154.2 20.2  1.3  67
2018 10 14 05  00 23 09.589   -14 11 32.72  .92847 1.8775 154.2 20.2  1.4  66
2018 10 14 06  00 23 05.434   -14 11 00.39  .92862 1.8775 154.2 20.2  1.5  66
2018 10 14 07  00 23 01.283   -14 10 28.03  .92877 1.8775 154.1 20.2  1.5  66
2018 10 14 08  00 22 57.135   -14 09 55.63  .92892 1.8775 154.1 20.2  1.6  66
2018 10 14 09  00 22 52.990   -14 09 23.21  .92906 1.8775 154.1 20.2  1.7  66
2018 10 14 10  00 22 48.848   -14 08 50.75  .92921 1.8775 154.0 20.2  1.8  66
2018 10 14 11  00 22 44.710   -14 08 18.27  .92936 1.8776 154.0 20.2  1.9  65
2018 10 14 12  00 22 40.575   -14 07 45.75  .92951 1.8776 154.0 20.2  1.9  65
2018 10 14 13  00 22 36.443   -14 07 13.20  .92966 1.8776 153.9 20.2  2.0  65
2018 10 14 14  00 22 32.314   -14 06 40.62  .92981 1.8776 153.9 20.2  2.1  65
2018 10 14 15  00 22 28.189   -14 06 08.02  .92996 1.8776 153.9 20.2  2.2  65
2018 10 14 16  00 22 24.067   -14 05 35.38  .93011 1.8776 153.8 20.2  2.3  65
2018 10 14 17  00 22 19.948   -14 05 02.71  .93026 1.8776 153.8 20.2  2.4  65
2018 10 14 18  00 22 15.833   -14 04 30.01  .93041 1.8776 153.8 20.2  2.5  65
2018 10 14 19  00 22 11.720   -14 03 57.28  .93057 1.8776 153.7 20.2  2.6  64
2018 10 14 20  00 22 07.612   -14 03 24.53  .93072 1.8776 153.7 20.2  2.7  64
2018 10 14 21  00 22 03.506   -14 02 51.74  .93087 1.8776 153.7 20.2  2.8  64
2018 10 14 22  00 21 59.404   -14 02 18.92  .93103 1.8776 153.6 20.2  2.9  64
2018 10 14 23  00 21 55.305   -14 01 46.07  .93118 1.8776 153.6 20.2  3.0  64
2018 10 15 00  00 21 51.209   -14 01 13.19  .93133 1.8776 153.6 20.2  3.1  64
2018 10 15 01  00 21 47.117   -14 00 40.28  .93149 1.8776 153.5 20.2  3.2  64
2018 10 15 02  00 21 43.028   -14 00 07.35  .93164 1.8776 153.5 20.2  3.3  64
2018 10 15 03  00 21 38.943   -13 59 34.38  .93180 1.8776 153.5 20.2  3.4  64
2018 10 15 04  00 21 34.861   -13 59 01.38  .93195 1.8776 153.4 20.2  3.5  64
2018 10 15 05  00 21 30.782   -13 58 28.35  .93211 1.8776 153.4 20.2  3.6  64
2018 10 15 06  00 21 26.706   -13 57 55.30  .93227 1.8776 153.4 20.2  3.7  64
2018 10 15 07  00 21 22.634   -13 57 22.21  .93243 1.8776 153.3 20.2  3.8  64
2018 10 15 08  00 21 18.566   -13 56 49.10  .93258 1.8776 153.3 20.2  3.9  64
2018 10 15 09  00 21 14.501   -13 56 15.95  .93274 1.8776 153.2 20.2  4.0  64
2018 10 15 10  00 21 10.439   -13 55 42.78  .93290 1.8776 153.2 20.2  4.2  64
2018 10 15 11  00 21 06.381   -13 55 09.57  .93306 1.8776 153.2 20.2  4.3  64
2018 10 15 12  00 21 02.326   -13 54 36.34  .93322 1.8776 153.1 20.2  4.4  64
2018 10 15 13  00 20 58.274   -13 54 03.08  .93338 1.8776 153.1 20.2  4.5  64